Simultaneous Nadir Overpasses (SNOs) Predictions

Prediction of SNOs between LANDSAT-8 and METOP-B Satellite Orbit:

Table of predicted SNOs for the next 14.0 days since TLE Epoch: 7/31/2021
Index Date (LANDSAT-8) Time (LANDSAT-8) Lat,Lon (LANDSAT-8) SZA (LANDSAT-8 ) Date (METOP-B) Time (METOP-B) Lat,Lon (METOP-B) SZA (METOP-B ) Distance(km) Time Diff (sec)
1 08/01/2021 15:33:33 81.10, -13.68 65.22 08/01/2021 15:32:35 81.10, -13.82 65.18 2.43 58
2 08/01/2021 16:22:59 -81.12, 154.28 114.73 08/01/2021 16:23:14 -81.12, 154.16 114.74 2.08 15
3 08/04/2021 11:07:48 81.11, 52.91 65.98 08/04/2021 11:06:56 81.11, 52.94 65.96 0.50 52
4 08/04/2021 11:57:14 -81.13,-139.10 113.96 08/04/2021 11:57:35 -81.13,-139.07 113.95 0.42 21
5 08/07/2021 06:42:05 81.09, 119.11 66.72 08/07/2021 06:41:20 81.09, 118.94 66.68 3.02 45
6 08/07/2021 07:31:30 -81.14, -72.50 113.16 08/07/2021 07:31:57 -81.14, -72.32 113.13 3.15 27
7 08/10/2021 02:16:21 81.10,-174.35 67.55 08/10/2021 02:15:42 81.11,-174.33 67.54 0.66 39
8 08/10/2021 03:05:47 -81.13, -6.31 112.39 08/10/2021 03:06:21 -81.13, -6.33 112.37 0.47 34
9 08/12/2021 21:50:36 81.11,-107.84 68.41 08/12/2021 21:50:04 81.10,-107.99 68.38 2.46 32



Historial Predications of SNOs between LANDSAT-8 and METOP-B
